CW7410 Weather Reports


Display with metric or nautical units.
time (UTC)temp
F
wind
direction
speed
MPH
gust
MPH
rain 1hr
in
rain 24hr
in
rain mn
in
humidity
%
barometer
mb
20260905124600 63 360 5.0 13.0 0.00 0.00 0.00 44 1015.0
20260905123105 63 360 10.0 16.0 0.00 0.00 0.00 44 1014.8
20260905121600 61 360 8.0 12.0 0.00 0.00 0.00 48 1014.7
20260905120109 63 360 4.0 6.0 0.00 0.00 0.00 51 1014.7
20260905114607 64 360 3.0 11.0 0.00 0.00 0.00 50 1014.7
20260905113102 65 360 9.0 17.0 0.00 0.00 0.00 47 1014.6
20260905111651 64 360 8.0 14.0 0.00 0.00 0.00 48 1014.5
20260905110056 64 360 8.0 14.0 0.00 0.00 0.00 49 1014.6
20260905104556 64 360 6.0 10.0 0.00 0.00 0.00 49 1014.5
20260905103103 65 360 5.0 10.0 0.00 0.00 0.00 47 1014.4
20260905101601 66 360 5.0 10.0 0.00 0.00 0.00 46 1014.3
20260905094554 67 360 7.0 12.0 0.00 0.00 0.00 44 1014.1
20260905093121 67 360 5.0 12.0 0.00 0.00 0.00 44 1014.1
20260905091559 67 360 8.0 16.0 0.00 0.00 0.00 43 1013.9
20260905090100 66 360 8.0 14.0 0.00 0.00 0.00 45 1013.8
20260905084558 67 360 7.0 14.0 0.00 0.00 0.00 45 1013.7
20260905083053 66 360 8.0 16.0 0.00 0.00 0.00 46 1013.6
20260905081556 66 360 8.0 11.0 0.00 0.00 0.00 46 1013.4
20260905080059 67 136 8.0 12.0 0.00 0.00 0.00 46 1013.4
20260905074556 67 155 5.0 11.0 0.00 0.00 0.00 46 1013.2
20260905073053 68 113 5.0 10.0 0.00 0.00 0.00 44 1013.1
20260905071556 69 145 6.0 10.0 0.00 0.00 0.00 43 1012.8
20260905070106 70 360 4.0 13.0 0.00 0.00 0.00 43 1012.7
20260905064619 70 360 8.0 15.0 0.00 0.00 0.00 41 1012.5
20260905063103 69 360 9.0 14.0 0.00 0.00 0.00 40 1012.3
20260905061557 69 360 6.0 10.0 0.00 0.00 0.00 42 1012.3
20260905060106 69 360 4.0 10.0 0.00 0.00 0.00 42 1012.1
20260905054554 71 135 4.0 8.0 0.00 0.00 0.00 41 1011.9
20260905053100 71 360 3.0 10.0 0.00 0.00 0.00 39 1011.8
20260905051602 72 360 4.0 11.0 0.00 0.00 0.00 38 1011.7
20260905044600 71 132 4.0 19.0 0.00 0.00 0.00 38 1011.6
20260905043104 71 179 6.0 10.0 0.00 0.00 0.00 37 1011.4
20260905041600 71 181 6.0 10.0 0.00 0.00 0.00 39 1011.3
20260905040100 72 180 4.0 8.0 0.00 0.00 0.00 39 1011.1
20260905034607 73 360 3.0 9.0 0.00 0.00 0.00 39 1011.0
20260905033102 73 360 5.0 9.0 0.00 0.00 0.00 38 1011.0
20260905031559 74 360 4.0 18.0 0.00 0.00 0.00 37 1010.8
20260905030116 74 179 9.0 17.0 0.00 0.00 0.00 36 1010.7
20260905024606 73 360 5.0 10.0 0.00 0.00 0.00 39 1010.4
20260905023101 74 360 5.0 10.0 0.00 0.00 0.00 38 1010.2
20260905021559 75 360 3.0 8.0 0.00 0.00 0.00 38 1010.2
20260905020106 78 173 4.0 9.0 0.00 0.00 0.00 36 1010.1
20260905014559 80 138 4.0 10.0 0.00 0.00 0.00 33 1010.1
20260905013104 82 150 4.0 9.0 0.00 0.00 0.00 33 1010.1
20260905011606 82 142 8.0 14.0 0.00 0.00 0.00 31 1010.2
20260905010105 83 165 10.0 25.0 0.00 0.00 0.00 29 1010.1
20260905004608 84 175 11.0 22.0 0.00 0.00 0.00 30 1010.1
20260905003105 84 146 10.0 16.0 0.00 0.00 0.00 29 1010.1
20260905001608 85 157 11.0 23.0 0.00 0.00 0.00 27 1010.2
20260905000106 85 175 12.0 24.0 0.00 0.00 0.00 27 1010.2
20260904234608 85 172 9.0 26.0 0.00 0.00 0.00 27 1010.2
20260904233059 85 188 11.0 26.0 0.00 0.00 0.00 26 1010.2
20260904231557 86 166 11.0 21.0 0.00 0.00 0.00 27 1010.4
20260904230058 86 183 15.0 30.0 0.00 0.00 0.00 27 1010.4
20260904224556 86 175 9.0 20.0 0.00 0.00 0.00 29 1010.6
20260904223100 86 182 11.0 23.0 0.00 0.00 0.00 27 1010.8
20260904221605 86 179 10.0 20.0 0.00 0.00 0.00 28 1011.0
20260904220110 85 192 9.0 19.0 0.00 0.00 0.00 27 1011.0
20260904214556 85 176 13.0 25.0 0.00 0.00 0.00 26 1011.1
20260904213104 85 134 13.0 29.0 0.00 0.00 0.00 26 1011.1
20260904211603 85 165 15.0 29.0 0.00 0.00 0.00 28 1011.1
20260904204557 85 165 9.0 24.0 0.00 0.00 0.00 29 1011.4
20260904203100 84 164 14.0 22.0 0.00 0.00 0.00 28 1011.7
20260904201558 84 161 14.0 27.0 0.00 0.00 0.00 28 1011.7
20260904200127 84 177 13.0 25.0 0.00 0.00 0.00 30 1011.8
20260904194635 83 175 15.0 37.0 0.00 0.00 0.00 30 1012.0
20260904193100 83 131 12.0 34.0 0.00 0.00 0.00 30 1012.2
20260904191614 82 153 15.0 27.0 0.00 0.00 0.00 31 1012.3
20260904184608 82 142 18.0 29.0 0.00 0.00 0.00 32 1012.7
20260904183057 82 178 15.0 35.0 0.00 0.00 0.00 33 1013.1
20260904181603 82 141 15.0 26.0 0.00 0.00 0.00 33 1013.1
20260904180107 81 141 15.0 33.0 0.00 0.00 0.00 32 1013.1
20260904174558 81 203 13.0 29.0 0.00 0.00 0.00 34 1013.3
20260904173112 80 151 14.0 28.0 0.00 0.00 0.00 32 1013.3
20260904171605 79 176 16.0 30.0 0.00 0.00 0.00 32 1013.2
20260904170057 79 127 19.0 29.0 0.00 0.00 0.00 34 1013.4
20260904164600 79 142 14.0 25.0 0.00 0.00 0.00 35 1013.2
20260904163104 78 160 14.0 26.0 0.00 0.00 0.00 35 1013.2
20260904161600 77 132 9.0 28.0 0.00 0.00 0.00 38 1013.1
20260904160101 77 156 10.0 21.0 0.00 0.00 0.00 38 1013.1
20260904154614 76 178 8.0 18.0 0.00 0.00 0.00 39 1013.0
20260904153103 74 106 11.0 18.0 0.00 0.00 0.00 38 1013.0
20260904151611 73 360 9.0 15.0 0.00 0.00 0.00 41 1013.1
20260904150057 71 360 8.0 15.0 0.00 0.00 0.00 43 1013.0
20260904144557 69 360 5.0 13.0 0.00 0.00 0.00 44 1012.9
20260904143103 65 116 7.0 14.0 0.00 0.00 0.00 49 1012.8
20260904141623 60 360 5.0 10.0 0.00 0.00 0.00 52 1012.6
20260904140108 57 93 5.0 9.0 0.00 0.00 0.00 54 1012.4
20260904134601 56 92 3.0 7.0 0.00 0.00 0.00 51 1012.2
20260904133113 56 75 1.0 7.0 0.00 0.00 0.00 49 1012.0
20260904131613 57 113 4.0 7.0 0.00 0.00 0.00 48 1011.8
20260904130056 58 0 0.0 4.0 0.00 0.00 0.00 47 1011.7